Regional Weather Roundup
Issued by NWS

Home | Current Version | Previous Version | Graphics & Text | Print | Product List | Glossary Off
Versions: 1 2 3 4 5 6 7 8 9 10 11 12 13 14 15 16 17 18 19 20 21 22 23 24 25 26 27 28 29 30 31 32 33 34 35 36 37 38 39 40 41 42 43 44 45 46 47 48 49 50

000
ASUS43 KMPX 201701
RWRMN
WEATHER ROUNDUP FOR MINNESOTA
NATIONAL WEATHER SERVICE TWIN CITIES/CHANHASSEN MN
1100 AM CST FRI JAN 20 2017


NOTE: "FAIR" INDICATES FEW OR NO CLOUDS BELOW 12,000 FEET WITH NO
SIGNIFICANT WEATHER AND/OR OBSTRUCTIONS TO VISIBILITY. N/A MEANS
CURRENT SKY AND/OR WEATHER CONDITIONS ARE NOT AVAILABLE.

MNZ060>063-068>070-201800-
   Twin Cities Metro

CITY           SKY/WX    TMP DP  RH WIND       PRES   REMARKS
TWIN CITIES    CLOUDY    36  34  92 SE9       29.61S FOG
ST PAUL        CLOUDY    36  36 100 SE6       29.62S FOG
CRYSTAL        CLOUDY    36  33  89 SE6       29.59S FOG
BLAINE         CLOUDY    37  37 100 SE7       29.60S FOG
LAKEVILLE      CLOUDY    34  34 100 SE6       29.60S FOG     WCI  29
EDEN PRAIRIE   CLOUDY    36  34  92 SE9       29.59R FOG
SOUTH ST PAUL  CLOUDY    36  36  99 SE5       29.61R FOG
LAKE ELMO      CLOUDY    36  36 100 SE6       29.62S FOG
$$
MNZ001>005-007-008-013>017-022>024-027-028-201800-
   Northwest Minnesota

CITY           SKY/WX    TMP DP  RH WIND       PRES   REMARKS
BEMIDJI        CLOUDY    33  33  99 E8        29.54F FOG     WCI  27
HALLOCK        CLOUDY    36  36 100 SE12      29.51S
ROSEAU         CLOUDY    36  30  80 SE7       29.55F HAZE
WARROAD        CLOUDY    36  30  80 E5        29.56F FOG
THIEF RVR FALL CLOUDY    36  34  92 SE9       29.53F
CROOKSTON      CLOUDY    34  34 100 SE8       29.53S WCI  27
FOSSTON        DRIZZLE   36  36 100 E10       29.52F
DETROIT LAKES  CLOUDY    34  34 100 SE13      29.53S FOG     WCI  25
MOORHEAD       CLOUDY    34  34 100 SE8       29.52F FOG     WCI  27
PARK RAPIDS    CLOUDY    35  32  88 E10       29.54F WCI  27
MAHNOMEN       CLOUDY    36  33  91 SE7       29.51F
$$
MNZ006-009>011-018-025>026-201800-
   North Central Minnesota

CITY           SKY/WX    TMP DP  RH WIND       PRES   REMARKS
BAUDETTE       CLOUDY    35  34  96 SE8       29.58R FOG     WCI  29
FLAG ISLAND    FOG       34  34 100 SE9       29.57S VSB 1/2 WCI  26
INTL FALLS     CLOUDY    36  33  89 SE8       29.61F FOG
WASKISH        CLOUDY    37  36  93 SE9       29.57F
BIG FORK       CLOUDY    36  34  93 SE7       29.60F FOG
LONGVILLE      DRIZZLE   36  36 100 E5        29.56F
GRAND RAPIDS   LGT RAIN  35  34  96 SE8       29.61F FOG     WCI  29
CRANE LAKE     CLOUDY    36  34  93 CALM      29.66F
ORR            CLOUDY    36  32  87 CALM      29.60F
COOK           CLOUDY    36  34  93 E3        29.63F FOG
WALKER         CLOUDY    33  33  99 E5        29.56F FOG     WCI  28
$$
MNZ012-019>021-037-201800-
   Northeast Minnesota

CITY           SKY/WX    TMP DP  RH WIND       PRES   REMARKS
DULUTH         LGT RAIN  35  34  96 E10       29.63F FOG     WCI  27
ELY            CLOUDY    30  30 100 CALM      29.65S FOG
HIBBING        CLOUDY    33  33 100 SE7       29.62F FOG     WCI  27
EVELETH        CLOUDY    34  33  98 E5        29.64F FOG     WCI  30
DULUTH HARBOR  MIX PCPN  34  34 100 CALM      29.67F VSB 1
TWO HARBORS    CLOUDY    37  34  87 NE5       29.64F HAZE
SILVER BAY     CLOUDY    36  34  93 N3        29.64F FOG
GRAND MARAIS     N/A     35  34  96 E8        29.70F WCI  29
G MARAIS ARPRT CLOUDY    30  28  93 N3        29.66F FOG
$$
MNZ029>031-032-039>041-046>048-054>057-064-201800-
   West Central Minnesota

CITY           SKY/WX    TMP DP  RH WIND       PRES   REMARKS
FERGUS FALLS   FOG       34  34 100 SE9       29.57R VSB 1   WCI  26
WHEATON        CLOUDY    41  41 100 E10       29.54S FOG
MORRIS         FOG       34  34 100 SE12      29.53R VSB 1/2 WCI  25
ALEXANDRIA     FOG       33  33 100 SE12      29.55R VSB 1/4 WCI  24
ELBOW LAKE     CLOUDY    33  33 100 E9        29.54S FOG     WCI  25
WADENA         FOG       34  34 100 SE9       29.54S VSB 3/4 WCI  26
GLENWOOD       FOG       34  34 100 E7        29.55S VSB<1/4 WCI  28
APPLETON       CLOUDY    36  34  93 SE7       29.54S FOG
BENSON         CLOUDY    36  32  87 S9          N/A
ORTONVILLE     FOG       34  32  93 SE3       29.52S VSB 1
MADISON        MIX PCPN  37  37 100 SE10      29.53F VSB 1
WILLMAR        FOG       36  36 100 SE9       29.57R VSB 3/4
$$
MNZ033>034-036-042>043-049>051-058-059-201800-
   Central Minnesota

CITY           SKY/WX    TMP DP  RH WIND       PRES   REMARKS
ST CLOUD       FOG       34  34 100 SE8       29.58S VSB 3/4 WCI  27
SAUK CENTRE    FOG       33  33 100 SE7       29.56R VSB 1/4 WCI  27
PAYNESVILLE    FOG       34  34 100 SE9       29.58R VSB 1/4 WCI  26
AITKIN         CLOUDY    37  34  87 E5        29.57F
PINE RIVER     CLOUDY    34  34 100 E9        29.60F FOG     WCI  26
BRAINERD       CLOUDY    35  34  96 SE7       29.57S WCI  29
STAPLES        CLOUDY    34  34 100 SE6       29.55F FOG     WCI  29
LONG PRAIRIE   CLOUDY    32  32 100 E6        29.56S FOG     WCI  26
LITTLE FALLS   CLOUDY    34  32  93 E6        29.57S FOG     WCI  29
LITCHFIELD     FOG       36  36 100 SE9       29.58R VSB<1/4
BUFFALO        CLOUDY    35  34  94 SE7       29.60R FOG     WCI  30
MAPLE LAKE     FOG       36  36 100 MISG      29.59R VSB 1
HUTCHINSON     FOG       35  35 100 SE8       29.59R VSB 1/4 WCI  28
$$
MNZ037-044-045-052-053-201800-
   East Central Minnesota

CITY           SKY/WX    TMP DP  RH WIND       PRES   REMARKS
PRINCETON      CLOUDY    37  36  93 E7        29.59S FOG
MORA           CLOUDY    34  32  93 SE5       29.62F FOG     WCI  30
CAMBRIDGE      CLOUDY    37  36  93 E5        29.58F FOG
RUSH CITY      CLOUDY    36  34  93 SE6       29.61S
MOOSE LAKE     LGT RAIN  36  34  93 CALM      29.60F
HINCKLEY       CLOUDY    36  36 100 E6        29.61S
CLOQUET        RAIN      36  34  93 E9        29.63S
MCGREGOR       CLOUDY    36  34  93 E8        29.60F
$$
MNZ071>073-080-081-089-090-097-098-201800-
   Southwest Minnesota

CITY           SKY/WX    TMP DP  RH WIND       PRES   REMARKS
MONTEVIDEO     CLOUDY    34  34 100 S6        29.57R FOG     WCI  29
GRANITE FALLS  CLOUDY    35  35  99 SE12      29.57S FOG     WCI  27
CANBY          CLOUDY    37  36  99 E5        29.53F FOG
MARSHALL       CLOUDY    37  35  92 S12       29.54F FOG
REDWOOD FALLS  FOG       35  33  92 S10       29.57R VSB 1   WCI  27
OLIVIA         CLOUDY    34  34 100 S8        29.56R FOG     WCI  27
PIPESTONE      FOG       36  36 100 SE12      29.50F VSB 1/4
WINDOM         FOG       36  36 100 SE7       29.57S VSB 1/2
WORTHINGTON    MIX PCPN  35  34  96 S8        29.56S FOG     WCI  29
JACKSON        FOG       34  34 100 S9        29.58S VSB 1/2 WCI  26
TRACY          DRIZZLE   37  37 100 S9        29.55F
SLAYTON        CLOUDY    34  34 100 SE10      29.55S FOG     WCI  26
$$
MNZ065>067-074>077-082>085-091>093-201800-
   South Central Minnesota

CITY           SKY/WX    TMP DP  RH WIND       PRES   REMARKS
MANKATO        CLOUDY    35  35 100 SE12      29.58F FOG     WCI  27
NEW ULM        CLOUDY    36  36 100 S8        29.58R FOG
ST JAMES       CLOUDY    34  34 100 S9        29.60R WCI  26
FAIRMONT       CLOUDY    35  34  96 S10       29.60R FOG     WCI  27
GLENCOE        FOG       36  36 100 SE7       29.58S VSB 3/4
FARIBAULT      CLOUDY    36  36 100 SE7       29.61S FOG
OWATONNA       CLOUDY    36  34  93 S7        29.60S FOG
WASECA         FOG       34  34 100 SE9       29.61F VSB 1/2 WCI  26
ALBERT LEA     FOG       36  36 100 SE13      29.59F VSB 1/4
$$
MNZ078>079-086>088-094>096-201800-
   Southeast Minnesota

CITY           SKY/WX    TMP DP  RH WIND       PRES   REMARKS
ROCHESTER      FOG       33  33 100 SE9       29.60F VSB 1/4 WCI  25
RED WING       CLOUDY    36  34  93 SE7       29.62R FOG
STANTON        CLOUDY    37  34  90 SE6       29.60R FOG
DODGE CENTER   FOG       34  34 100 CALM      29.60S VSB 1/4
WINONA         CLOUDY    34  34 100 SE6       29.64F FOG     WCI  29
AUSTIN         FOG       36  34  93 S5        29.61R VSB 3/4
PRESTON        FOG       34  33  97 SE8       29.62S VSB 1/4 WCI  27
$$
ABBREVIATIONS USED IN REMARKS
   TC - TEMPERATURES IN CELSIUS
  WCI - WIND CHILL INDEX
   HX - HEAT INDEX
  VSB - VISIBILITY
$$



USA.gov is the U.S. government's official web portal to all federal, state and local government web resources and services.